Marianna, FL

7:26 AM CST on January 16, 2017 (GMT -0600)
Marianna Municipal

Weather History for KMAI - February, 2013

Change the Weather History Date:

Friday, February 22, 2013

  Actual Average Record
Temperature  
Mean Temperature 66 °F 56 °F  
Max Temperature 68 °F 68 °F 82 °F (2011)
Min Temperature 63 °F 44 °F 30 °F (1999)
Degree Days  
Heating Degree Days 0    
Month to date heating degree days 240  
Since 1 July heating degree days 966  
Cooling Degree Days 1    
Month to date cooling degree days 6  
Year to date cooling degree days 59  
Growing Degree Days 16 (Base 50)    
Moisture  
Dew Point 65 °F    
Average Humidity 97    
Maximum Humidity 100    
Minimum Humidity 93    
Precipitation  
Precipitation 2.51 in 0.18 in 3.64 in (2008)
Month to date precipitation 5.46 3.78  
Year to date precipitation 6.42 8.82  
Sea Level Pressure  
Sea Level Pressure 29.97 in    
Wind  
Wind Speed 6 mph (SE)    
Max Wind Speed 12 mph    
Max Gust Speed 17 mph    
Visibility 5 miles    
Events Rain , Thunderstorm    
T = Trace of Precipitation, MM = Missing Value Source: NWS Daily Summary

Daily Weather History Graph

Daily Weather History Graph

Search for Another Location

Airport or City:

Trip Planner

Search our weather history database for the weather conditions in past years. The results will help you decide how hot, cold, wet, or windy it might be!

Date:

Astronomy

Feb. 22, 2013 Rise Set
Actual Time 6:14 AM CST 5:34 PM CST
Civil Twilight 5:50 AM CST 5:58 PM CST
Nautical Twilight 5:21 AM CST 6:26 PM CST
Astronomical Twilight 4:53 AM CST 6:54 PM CST
Moon 2:52 PM CST (2/22) 3:50 AM CST (2/22)
Length of Visible Light 12h 08m
Length of Day
11h 19m
Waxing Gibbous, 90% of the Moon is Illuminated
Feb 22
Waxing Gibbous
Feb 25
Full
Mar 4
Last Quarter
Mar 11
New
Mar 19
First Quarter

Hourly Weather History & Observations

Time (CST) Temp. Dew Point Humidity Pressure Visibility Wind Dir Wind Speed Gust Speed Precip Events Conditions
12:53 AM 63.0 °F 61.0 °F 93% 29.97 in 9.0 mi South 6.9 mph - N/A   Overcast
1:53 AM 64.0 °F 63.0 °F 96% 29.96 in 9.0 mi South 5.8 mph - N/A   Overcast
2:25 AM 64.4 °F 62.6 °F 94% 29.95 in 3.0 mi South 8.1 mph - N/A   Overcast
2:37 AM 64.4 °F 64.4 °F 100% 29.95 in 2.5 mi South 6.9 mph - N/A   Overcast
2:53 AM 64.0 °F 64.0 °F 100% 29.95 in 2.0 mi South 6.9 mph - N/A   Overcast
3:29 AM 64.4 °F 64.4 °F 100% 29.95 in 1.8 mi South 5.8 mph - N/A   Overcast
3:53 AM 64.0 °F 64.0 °F 100% 29.95 in 1.5 mi SSE 3.5 mph - N/A   Overcast
4:36 AM 64.4 °F 64.4 °F 100% 29.95 in 2.0 mi SSE 3.5 mph - N/A   Overcast
4:53 AM 64.0 °F 64.0 °F 100% 29.96 in 2.5 mi SSE 3.5 mph - N/A   Overcast
5:53 AM 64.9 °F 64.9 °F 100% 29.96 in 2.5 mi SSE 6.9 mph - N/A   Overcast
6:13 AM 66.2 °F 64.4 °F 94% 29.96 in 3.0 mi SSE 8.1 mph - N/A   Overcast
6:53 AM 66.9 °F 66.0 °F 97% 29.96 in 5.0 mi South 11.5 mph 17.3 mph N/A   Overcast
7:53 AM 68.0 °F 66.0 °F 93% 29.98 in 8.0 mi SSE 6.9 mph - 0.00 in Rain Light Rain
8:06 AM 68.0 °F 66.2 °F 94% 29.98 in 4.0 mi SSE 4.6 mph - 0.02 in Rain , Thunderstorm Rain
8:20 AM 66.2 °F 66.2 °F 100% 30.00 in 1.5 mi Variable 3.5 mph - 0.11 in Rain , Thunderstorm Heavy Thunderstorms and Rain
8:42 AM 66.2 °F 66.2 °F 100% 30.00 in 2.5 mi Calm Calm - 0.23 in Rain , Thunderstorm Light Rain
8:51 AM 66.2 °F 66.2 °F 100% 30.00 in 1.0 mi ENE 3.5 mph - 0.35 in Rain , Thunderstorm Heavy Thunderstorms and Rain
8:53 AM 66.9 °F 66.0 °F 97% 30.01 in 1.0 mi East 3.5 mph - 0.39 in Rain , Thunderstorm Heavy Thunderstorms and Rain
9:01 AM 66.2 °F 66.2 °F 100% 30.01 in 0.8 mi ENE 6.9 mph - 0.15 in Rain , Thunderstorm Heavy Thunderstorms and Rain
9:11 AM 66.2 °F 66.2 °F 100% 30.00 in 1.2 mi East 5.8 mph - 0.28 in Rain , Thunderstorm Heavy Rain
9:16 AM 66.2 °F 66.2 °F 100% 30.01 in 0.8 mi East 6.9 mph - 0.51 in Rain , Thunderstorm Heavy Thunderstorms and Rain
9:32 AM 66.2 °F 66.2 °F 100% 30.02 in 1.0 mi Calm Calm - 1.02 in Rain , Thunderstorm Heavy Rain
9:38 AM 66.2 °F 66.2 °F 100% 30.02 in 1.0 mi Calm Calm - 1.15 in Rain Heavy Rain
9:41 AM 66.2 °F 66.2 °F 100% 30.01 in 1.0 mi East 4.6 mph - 1.17 in Rain , Thunderstorm Heavy Rain
9:48 AM 66.2 °F 64.4 °F 94% 30.01 in 2.5 mi SSE 8.1 mph - 1.19 in Rain , Thunderstorm Rain
9:51 AM 66.2 °F 64.4 °F 94% 30.01 in 3.0 mi SSE 6.9 mph - 1.20 in Rain , Thunderstorm Heavy Rain
9:53 AM 66.0 °F 64.9 °F 96% 30.00 in 3.0 mi ESE 6.9 mph - 1.22 in Rain , Thunderstorm Heavy Rain
9:55 AM 66.2 °F 64.4 °F 94% 30.00 in 2.5 mi SE 8.1 mph - 0.01 in Rain , Thunderstorm Heavy Rain
9:59 AM 66.2 °F 64.4 °F 94% 30.00 in 3.0 mi SE 9.2 mph - 0.02 in Rain , Thunderstorm Rain
10:19 AM 66.2 °F 64.4 °F 94% 29.99 in 10.0 mi SSE 5.8 mph - 0.03 in Rain , Thunderstorm Light Rain
10:44 AM 66.2 °F 64.4 °F 94% 30.01 in 5.0 mi Calm Calm - 0.09 in Rain Rain
10:53 AM 66.0 °F 64.9 °F 96% 29.98 in 6.0 mi ESE 8.1 mph - 0.10 in Rain Rain
11:16 AM 66.2 °F 64.4 °F 94% 30.00 in 10.0 mi Calm Calm - 0.03 in Rain Light Rain
11:38 AM 66.2 °F 64.4 °F 94% 29.98 in 10.0 mi East 4.6 mph - 0.04 in Rain Light Rain
11:53 AM 66.0 °F 64.9 °F 96% 30.00 in 10.0 mi Calm Calm - 0.05 in Rain Light Rain
12:11 PM 66.2 °F 64.4 °F 94% 29.99 in 10.0 mi SSE 4.6 mph - 0.00 in   Overcast
12:26 PM 66.2 °F 64.4 °F 94% 29.98 in 5.0 mi SE 3.5 mph - 0.02 in Rain Rain
12:53 PM 66.0 °F 64.9 °F 96% 29.97 in 3.0 mi SSE 3.5 mph - 0.09 in Rain Rain
1:28 PM 66.2 °F 64.4 °F 94% 29.98 in 6.0 mi South 6.9 mph - 0.08 in Rain Light Rain
1:53 PM 66.0 °F 64.9 °F 96% 29.96 in 10.0 mi Variable 4.6 mph - 0.13 in Rain Light Rain
2:25 PM 66.2 °F 64.4 °F 94% 29.97 in 10.0 mi South 3.5 mph - 0.00 in   Overcast
2:38 PM 66.2 °F 64.4 °F 94% 29.97 in 10.0 mi SE 3.5 mph - 0.00 in Rain Light Rain
2:53 PM 66.0 °F 64.0 °F 93% 29.95 in 5.0 mi Calm Calm - 0.02 in Rain Rain
3:04 PM 66.2 °F 64.4 °F 94% 29.96 in 4.0 mi SSE 5.8 mph - 0.02 in Rain Light Rain
3:23 PM 64.4 °F 64.4 °F 100% 29.96 in 4.0 mi SSE 4.6 mph - 0.07 in Rain Rain
3:53 PM 64.9 °F 64.0 °F 97% 29.97 in 2.5 mi SSW 5.8 mph - 0.16 in Rain Rain
4:10 PM 64.4 °F 64.4 °F 100% 29.95 in 4.0 mi ESE 4.6 mph - 0.05 in Rain Rain
4:53 PM 66.0 °F 64.0 °F 93% 29.95 in 10.0 mi Variable 4.6 mph - 0.08 in Rain Light Rain
5:48 PM 66.2 °F 64.4 °F 94% 29.95 in 10.0 mi ESE 6.9 mph - 0.01 in Rain , Thunderstorm Light Rain
5:53 PM 66.0 °F 64.0 °F 93% 29.95 in 9.0 mi SE 8.1 mph - 0.01 in Rain , Thunderstorm Light Rain
6:00 PM 66.2 °F 64.4 °F 94% 29.96 in 10.0 mi ESE 5.8 mph - 0.00 in Rain , Thunderstorm Light Thunderstorms and Rain
6:19 PM 66.2 °F 64.4 °F 94% 29.98 in 2.0 mi South 4.6 mph - 0.11 in Rain , Thunderstorm Heavy Rain
6:26 PM 64.4 °F 64.4 °F 100% 29.98 in 2.5 mi SSE 4.6 mph - 0.16 in Rain Heavy Rain
6:37 PM 64.4 °F 64.4 °F 100% 29.97 in 3.0 mi SSE 6.9 mph - 0.19 in Rain Light Rain
6:42 PM 64.4 °F 64.4 °F 100% 29.97 in 4.0 mi SSE 10.4 mph - 0.19 in Rain Light Rain
6:53 PM 64.9 °F 64.0 °F 97% 29.97 in 3.0 mi South 8.1 mph - 0.22 in Rain Light Rain
7:38 PM 64.4 °F 64.4 °F 100% 29.95 in 8.0 mi Variable 6.9 mph - 0.02 in Rain Rain
7:53 PM 66.0 °F 64.0 °F 93% 29.96 in 10.0 mi SSE 6.9 mph - 0.02 in   Overcast
8:29 PM 66.2 °F 64.4 °F 94% 29.96 in 10.0 mi SSE 5.8 mph - 0.02 in Rain Light Rain
8:53 PM 66.0 °F 64.0 °F 93% 29.95 in 10.0 mi SE 6.9 mph - 0.02 in   Overcast
9:04 PM 66.2 °F 64.4 °F 94% 29.95 in 10.0 mi ESE 6.9 mph - N/A   Overcast
9:53 PM 64.9 °F 64.0 °F 97% 29.95 in 10.0 mi South 5.8 mph - 0.00 in   Overcast
10:15 PM 64.4 °F 64.4 °F 100% 29.94 in 10.0 mi Variable 3.5 mph - 0.00 in Rain Light Rain
10:53 PM 64.9 °F 64.0 °F 97% 29.92 in 10.0 mi Variable 3.5 mph - 0.00 in   Overcast
11:53 PM 64.9 °F 64.0 °F 97% 29.91 in 10.0 mi SSE 6.9 mph - N/A   Overcast